Marina Di Campo Airport

Jump to: basic info | weather | frequencies | runways | comments

Related pages: nearby airports | nearby navaids | notams | map

Basic information (top)

Codes: EBA LIRJ
Location: lon 42.760300, lat 10.239400, elev 31 ft / 9 m msl
Status: medium_airport

Weather (top)

Current conditions for Bastia-Poretta Airport 36nm (66km) WSW (rec'd 2014/07/29 04:00Z):

LFKB 290400Z 19004KT 160V220 9999 -RA FEW030TCU BKN100 22/14 Q1009 NOSIG

Airport forecast for Bastia-Poretta Airport 36nm (66km) WSW (rec'd 2014/07/28 00:15Z):

TAF LFKB 282300Z 2900/2924 22003KT 9999 FEW050 BKN110 PROB30 
      TEMPO 2901/2906 VRB10G20KT SHRA FEW015 FEW030CB BKN033 
      BECMG 2906/2908 BKN030 PROB30 
      TEMPO 2908/2912 SHRA FEW020 FEW028CB BKN030 
      TEMPO 2912/2924 VRB10G25KT 5000 TSRA BKN015 SCT020CB BKN030 TX25/2911Z TN20/2904Z

Frequencies (top)

Verify before use: may be inaccurate or out of date.

AFIS: 123.7 MHz (AFIS)

Runways (top)

16/34: 3,114 x 75 ft (949 x 23 m) — paved — not lighted — threshold 16 displaced 479 ft (146 m) — threshold 34 displaced 285 ft (87 m)

Latest comments (top)

No comments yet for Marina Di Campo Airport

More... (top)

See also NOTAMs and nearby airports and navaids, or visit the Marina Di Campo Airport page at the main OurAirports website..